OPTUS D3

Last updated on Thu Nov 21 2024 00:02:41 GMT+0000 (Coordinated Universal Time)

1 35756U 09044B 24325.63400039 -.00000146 00000+0 00000+0 0 9994 2 35756 0.4118 85.2906 0003894 180.2610 178.8352 1.00271040 55801
UTC large
Height (km)
Speed (km/s)
/
Latitude / Longitude
Inclination (degrees)
Orbital Period (minutes)
Azimuth
Elevation
Range (km)
Doppler Factor

Next 0 passes for location: London (51.5072 / 0.1276)

Sorry there are no passes over London.